Weather History for EGQL - December, 2012

Change the Weather History Date:

Monday, December 17, 2012

  Actual Average Record
Temperature  
Mean Temperature 40 °F -  
Max Temperature 44 °F 42 °F 55 °F (1998)
Min Temperature 37 °F 33 °F 17 °F (2010)
Degree Days  
Heating Degree Days 24    
Moisture  
Dew Point 41 °F    
Average Humidity 94    
Maximum Humidity 100    
Minimum Humidity 86    
Precipitation  
Precipitation 0.08 in - - ()
Sea Level Pressure  
Sea Level Pressure 29.45 in    
Wind  
Wind Speed 6 mph ()    
Max Wind Speed 14 mph    
Max Gust Speed -    
Visibility 6.4 miles    
Events Rain    
Averages and records for this station are not official NWS values.
T = Trace of Precipitation, MM = Missing Value Source: Averaged Metar Reports

Daily Weather History Graph

Daily Weather History Graph

Search for Another Location

Airport or City:

Trip Planner

Search our weather history database for the weather conditions in past years. The results will help you decide how hot, cold, wet, or windy it might be!

Date:

Astronomy

Dec. 17, 2012 Rise Set
Actual Time 8:41 AM GMT 3:34 PM GMT
Civil Twilight 7:53 AM GMT 4:22 PM GMT
Nautical Twilight 7:03 AM GMT 5:12 PM GMT
Astronomical Twilight 6:17 AM GMT 5:58 PM GMT
Moon 10:54 AM GMT (12/17) 9:32 PM GMT (12/17)
Length of Visible Light 8h 29m
Length of Day
6h 52m
Waxing Crescent, 23% of the Moon is Illuminated
Dec 17
Waxing Crescent
Dec 20
First Quarter
Dec 28
Full
Jan 5
Last Quarter
Jan 11
New

Hourly Weather History & Observations

Time (GMT) Temp. Windchill Dew Point Humidity Pressure Visibility Wind Dir Wind Speed Gust Speed Precip Events Conditions
12:50 AM 37.4 °F 34.9 °F 35.6 °F 93% 29.33 in 5.6 mi ENE 3.5 mph - N/A   Haze
1:50 AM 41.0 °F 36.4 °F 39.2 °F 93% 29.33 in 6.2 mi ESE 6.9 mph - N/A   Mostly Cloudy
2:17 AM 41.0 °F 34.7 °F 39.2 °F 93% 29.36 in 3.7 mi ESE 10.4 mph - N/A   Haze
2:50 AM 41 °F - 40 °F 93% 29.36 in 2 mi ESE 11.5 mph - -   Haze
2:50 AM 41.0 °F 34.3 °F 39.2 °F 93% 29.36 in 2.5 mi ESE 11.5 mph - N/A   Haze
3:50 AM 41.0 °F 33.9 °F 39.2 °F 93% 29.36 in 5.6 mi SE 12.7 mph - N/A   Haze
4:50 AM 42.8 °F 40.1 °F 39.2 °F 87% 29.36 in 4.3 mi SE 4.6 mph - N/A   Haze
5:50 AM 44 °F - 42 °F 89% 29.36 in 6 mi ENE 8.1 mph - - Rain Light Rain
5:50 AM 42.8 °F 38.0 °F 41.0 °F 93% 29.36 in 5.6 mi ENE 8.1 mph - N/A Rain Light Rain
6:50 AM 42.8 °F 35.8 °F 41.0 °F 93% 29.36 in 3.1 mi East 13.8 mph - N/A Rain Rain
7:50 AM 42.8 °F 40.1 °F 42.8 °F 100% 29.36 in 4.3 mi East 4.6 mph - N/A Rain Light Rain
8:50 AM 43 °F - 42 °F 92% 29.39 in 7 mi East 5.8 mph - - Rain Light Rain
9:50 AM 42.8 °F 38.6 °F 42.8 °F 100% 29.39 in 4.3 mi East 6.9 mph - N/A Rain Light Rain
10:17 AM 42.8 °F 41.1 °F 42.8 °F 100% 29.39 in 6.2 mi East 3.5 mph - N/A Rain Light Rain
10:50 AM 42.8 °F 39.3 °F 42.8 °F 100% 29.42 in 6.2 mi East 5.8 mph - N/A   Overcast
11:31 AM 42.8 °F 38.0 °F 41.0 °F 93% 29.42 in 6.2 mi East 8.1 mph - N/A   Overcast
11:50 AM 44 °F - 41 °F 86% 29.44 in 16 mi East 8.1 mph - -   Partly Cloudy
11:50 AM 42.8 °F 38.0 °F 41.0 °F 93% 29.42 in 6.2 mi East 8.1 mph - N/A   Overcast
12:50 PM 44.6 °F 41.4 °F 42.8 °F 93% 29.44 in 6.2 mi ENE 5.8 mph - N/A   Light Drizzle
2:50 PM 43 °F - 42 °F 96% 29.48 in 19 mi NNE 4.6 mph - - Rain Drizzle
3:50 PM 42.8 °F 41.1 °F 41.0 °F 93% 29.50 in 6.2 mi NNE 3.5 mph - N/A   Overcast
4:28 PM 41.0 °F 39.0 °F 41.0 °F 100% 29.50 in 6.2 mi North 3.5 mph - N/A   Overcast
4:50 PM 39.2 °F 35.9 °F 39.2 °F 100% 29.53 in 6.2 mi NNE 4.6 mph - N/A   Mostly Cloudy
5:50 PM 42 °F - 41 °F 95% 29.56 in 9 mi NNE 4.6 mph - -   Partly Cloudy
5:50 PM 41.0 °F 38.0 °F 41.0 °F 100% 29.56 in 6.2 mi NNE 4.6 mph - N/A   Overcast
6:50 PM 42.8 °F 40.1 °F 41.0 °F 93% 29.59 in 6.2 mi North 4.6 mph - N/A   Mostly Cloudy
7:50 PM 42.8 °F 39.3 °F 41.0 °F 93% 29.62 in 6.2 mi North 5.8 mph - N/A   Overcast
8:50 PM 43 °F - 41 °F 92% 29.66 in 6 mi NNE 6.9 mph - - Rain Light Rain
8:50 PM 42.8 °F 38.6 °F 41.0 °F 93% 29.65 in 6.2 mi NNE 6.9 mph - N/A Rain Light Rain
9:50 PM 42.8 °F 39.3 °F 41.0 °F 93% 29.68 in 6.2 mi North 5.8 mph - N/A   Overcast